ORBCOMM FM 15

Satellite information

Favourite Embed

Satellite Type and Status

PAYLOADIN ORBIT

Key statistics

Satellite ORBCOMM FM 15 at a glance.

Uptime

9834

Days in orbit

Revolutions

≈ 14.4

Per day

Orbit

LEO

Low Earth Orbit

Inclination

45.0

Latest

Satellite identification and parameters

Extended collection of information and parameters for ORBCOMM FM 15.

Object identification

Identified? True

Debris? False

Object name: ORBCOMM FM 15

International designator: 1998-046F

Object number (NORAD): 25418

Object ID (CCSDS): 25418

Country: ORBITAL TELECOMMUNICATIONS SATELLITE (GLOBALSTAR) (ORB)

Current information (Y/N): Y

RCS size: MEDIUM

Orbital parameters

Period: 100.098 minutes

Inclination: 44.9969 deg

SMA: 7141.304 km

Apoapsis: 766.974 km

Periapsis: 759.364 km

RAAN: 97.3653 deg

Eccentricy: 0.0005328

Argument of periapsis: 15.1829 deg

Mean anomaly: 344.9178 deg

Mean motion: 14.38588216 rev/day

Mean motion (dot): 0.00000787 rev/day2

B* drag term: 0.00030102 1/REarth

Two-line elements (TLE)

Creation date: July 4, 2025, 6:39 p.m.

Reference frame: TEME

Reference center: EARTH

Epoch: July 4, 2025, 4:10 a.m. UTC

TLE line 0: 0 ORBCOMM FM 15

TLE line 1: 1 25418U 98046F 25185.17420966 .00000787 00000-0 30102-3 0 9994

TLE line 2: 2 25418 44.9969 97.3653 0005328 15.1829 344.9178 14.38588216406697

Live tracking on map

Real-time ground track for satellite ORBCOMM FM 15.

In-orbit conjunctions

There are no conjunctions computed for ORBCOMM FM 15, at the moment. Check back to stay up to date, as we update our databases every day.

Go to all conjunctions

Associated space launch

ORBCOMM FM 15 was lifted into orbit during the mission ‘Pegasus XL HAPS | Orbcomm-B1 - B8’, on board a Pegasus XL HAPS space rocket.

The launch took place on Aug. 2, 1998, 4:24 p.m. from Wallops Flight Facility.

For more information about the launch, click the button.

Launch to space Pegasus XL HAPS | Orbcomm-B1 - B8
Pegasus XL HAPS | Orbcomm-B1 - B8

Agency: N/A

Status: Launch Successful

Launch date: Aug. 2, 1998, 4:24 p.m. UTC

Rocket: Pegasus XL HAPS

Launch pad: Wallops Flight Facility

Location: Air launch to orbit

...

Latest news about this satellite

There are no fresh news available about this satellite. Check back as we update our databases every day.


Newsletter sign-up

Weekly statistics, charts and insights to help you stay on top of the space industry.